• Processing (Info)

  • MPEC 2019-V86 : 2019 VC3

    The following Minor Planet Electronic Circular may be linked-to from your own Web pages, but must not otherwise be redistributed electronically.

    A form allowing access to any MPEC is at the bottom of this page.


    Read MPEC 2019-V85 Read MPEC 2019-V87


    M.P.E.C. 2019-V86                              Issued 2019 November 6, 21:51 UT
    
         The Minor Planet Electronic Circulars contain information on unusual
             minor planets and routine data on comets.  They are published
        on behalf of Division F of the International Astronomical Union by the
              Minor Planet Center, Smithsonian Astrophysical Observatory,
                              Cambridge, MA 02138, U.S.A.
    
                 Prepared using the Tamkin Foundation Computer Network
    
                                  MPC@CFA.HARVARD.EDU
                URL https://www.minorplanetcenter.net/    ISSN 1523-6714
    
                                    2019 VC3                                 
    
    
    Observations:
         K19V03C  C2019 11 04.47641502 03 25.225+20 53 39.46         21.6 GVEV086F51
         K19V03C  C2019 11 04.48997602 03 27.861+20 52 12.28         21.5 GVEV086F51
         K19V03C  C2019 11 04.50358602 03 30.561+20 50 43.21         21.3 GVEV086F51
         K19V03C* C2019 11 05.23329 02 06 12.99 +19 39 18.5          20.9 GVEV086G96
         K19V03C  C2019 11 05.23838 02 06 13.77 +19 38 51.8          22.3 GVEV086G96
         K19V03C  C2019 11 05.24347 02 06 14.66 +19 38 23.8          21.7 GVEV086G96
         K19V03C  C2019 11 05.24856 02 06 15.38 +19 37 56.9          21.5 GVEV086G96
         K19V03C  C2019 11 05.34349 02 06 30.24 +19 29 30.3          22.0 GVEV086I52
         K19V03C  C2019 11 05.34766 02 06 30.92 +19 29 08.9          22.2 GVEV086I52
         K19V03C  C2019 11 05.35183 02 06 31.57 +19 28 46.4          22.4 GVEV086I52
         K19V03C  C2019 11 05.35600 02 06 32.22 +19 28 24.0          21.9 GVEV086I52
         K19V03C  C2019 11 05.50166702 06 58.610+19 16 10.00         22.1 GVEV086F51
         K19V03C  C2019 11 05.50232602 06 58.724+19 16 06.36         22.3 GVEV086F51
         K19V03C  C2019 11 05.51396502 07 00.489+19 15 06.27         21.6 GVEV086F51
         K19V03C  C2019 11 05.51462102 07 00.593+19 15 02.56         21.3 GVEV086F51
         K19V03C  C2019 11 05.52619902 07 02.377+19 14 02.80         21.3 GVEV086F51
         K19V03C  C2019 11 05.53851402 07 04.306+19 12 58.92         21.7 GVEV086F51
         K19V03C  C2019 11 06.19557302 09 03.30 +18 21 13.4          21.3 GVEV086H01
         K19V03C  C2019 11 06.20041402 09 03.93 +18 20 52.3          22.2 GVEV086H01
         K19V03C  C2019 11 06.21206202 09 05.41 +18 20 01.9          21.5 GVEV086H01
         K19V03C  C2019 11 06.21979602 09 06.39 +18 19 28.3          21.5 GVEV086H01
    
    Observer details:
    F51 Pan-STARRS 1, Haleakala.  Observers J. Bulger, K. Chambers, T. Lowe, E. 
       Magnier, A. Schultz, M. Willman.  Measurers S. Chastel, M. Huber, Y. 
       Ramanjooloo, R. Wainscoat, R. Weryk.  1.8-m Ritchey-Chretien + CCD.
    G96 Mt. Lemmon Survey.  Observer E. J. Christensen.  Measurers E. J. 
       Christensen, G. A. Farneth, D. C. Fuls, A. R. Gibbs, A. D. Grauer, H. 
       Groeller, R. A. Kowalski, S. M. Larson, G. J. Leonard, T. A. Pruyne, D. 
       Rankin, R. L. Seaman, F. C. Shelly, K. W. Wierzchos.  1.5-m reflector + 10K 
       CCD.
    H01 Magdalena Ridge Observatory, Socorro.  Observers W. H. Ryan, E. V. Ryan.  
        Measurer W. H. Ryan.  2.4-m f/8.9 Ritchey-Chretien + CCD.
    I52 Steward Observatory, Mt. Lemmon Station.  Observer D. Rankin.  Measurers E. 
       J. Christensen, G. A. Farneth, D. C. Fuls, A. R. Gibbs, A. D. Grauer, H. 
       Groeller, R. A. Kowalski, S. M. Larson, G. J. Leonard, T. A. Pruyne, D. 
       Rankin, R. L. Seaman, F. C. Shelly, K. W. Wierzchos.  1.0-m reflector + CCD.
    
    Orbital elements:
    2019 VC3                                                 Earth MOID = 0.0081 AU
    Epoch 2019 Apr. 27.0 TT = JDT 2458600.5                 Bell
    M 298.08705              (2000.0)            P               Q
    n   0.45782301     Peri.   86.35357     +0.69065526     +0.72014070
    a   1.6672638      Node   227.56467     -0.69404279     +0.63428139
    e   0.5824942      Incl.    5.15221     -0.20322383     +0.28121965
    P   2.15           H   26.5           G   0.15           U   7
    Residuals in seconds of arc
    191104 F51  0.2+  0.5-    191105 I52  0.3-  0.3-    191105 F51  0.0   0.2-
    191104 F51  0.2-  0.5+    191105 I52  0.0   0.5+    191105 F51  0.1-  0.1+
    191104 F51  0.0   0.0     191105 I52  0.1-  0.3+    191105 F51  0.0   0.1+
    191105 G96  0.1+  0.0     191105 I52  0.2-  0.1+    191106 H01  0.2-  0.1+
    191105 G96  0.3-  0.5+    191105 F51  0.0   0.0     191106 H01  0.0   0.0
    191105 G96  0.9+  0.3-    191105 F51  0.2+  0.2-    191106 H01  0.0   0.1+
    191105 G96  0.3-  0.1-    191105 F51  0.0   0.1+    191106 H01  0.1+  0.0
    
    Ephemeris:
    2019 VC3                 a,e,i = 1.67, 0.58, 5                   q = 0.6961
    Date    TT    R. A. (2000) Decl.     Delta      r    Elong.  Phase     V
    2019 10 07    14 37 28.8 -01 48 18   0.2135  0.8161    27.4   145.7    30.4
    ...
    2019 10 22    15 08 38.9 +12 28 23   0.06102 0.9438    31.3   146.8    28.2
    ...
    2019 10 30    00 49 47.4 +45 38 05   0.03118 1.0184   143.2    35.7    20.5
    ...
    2019 11 05    02 05 24.3 +20 01 14   0.08472 1.0754   170.9     8.4    21.9
    2019 11 06    02 08 29.3 +18 36 20   0.09450 1.0850   171.5     7.8    22.1
    2019 11 07    02 10 58.8 +17 27 12   0.1044  1.0945   171.5     7.7    22.3
    ...
    2019 11 13    02 19 45.9 +13 29 30   0.1656  1.1517   167.1    11.1    23.6
    ...
    2019 11 21    02 25 46.1 +11 25 05   0.2521  1.2275   159.6    16.3    24.8
    ...
    2019 12 06    02 35 01.1 +10 30 11   0.4320  1.3657   146.2    23.7    26.5
    
    A. U. Tomatic                (C) Copyright 2019 MPC           M.P.E.C. 2019-V86
    


    Read MPEC 2019-V85 Read MPEC 2019-V87


    MPEC number:

    Enter an MPEC number in one of the following forms:

    • 1997-B01 (the full form)
    • J97B01 (the packed version of the full form)
    • B01 (the abbreviated form)